Overview Statistics Trail Chart Weather Telemetry Raw packets
 

This is the latest recevied weather packets stored in our database for station/object KJ5FA-10. If no packets are shown the sender has not sent any weather packets the latest 10 day(s).

<< 1 2 3 4 5 6 >>
Time Temp. Humidity Pressure Rain* Wind** Luminosity Snow
1788509371 25° C 84% 1014.9 hPa 0 mm - - -
1788508494 25° C 83% 1015 hPa 0 mm - - -
1788507571 25.56° C 82% 1015.1 hPa 0 mm - - -
1788506190 25.56° C 83% 1015 hPa 0 mm - - -
1788505832 25.56° C 83% 1015.1 hPa 0 mm - - -
1788503976 26.11° C 78% 1014.8 hPa 0 mm - - -
1788503076 26.11° C 78% 1014.7 hPa 0 mm - - -
1788502177 26.67° C 76% 1014.8 hPa 0 mm - - -
1788500376 26.67° C 75% 1015 hPa 0 mm - - -
1788498576 27.22° C 74% 1014.8 hPa 0 mm - - -
1788496776 27.78° C 72% 1014.6 hPa 0 mm - - -
1788495876 27.78° C 71% 1014.7 hPa 0 mm - - -
1788494976 28.33° C 69% 1014.5 hPa 0 mm - - -
1788494077 28.89° C 67% 1014.4 hPa 0 mm - - -
1788493177 29.44° C 64% 1014.5 hPa 0 mm - - -
1788492277 30° C 61% 1014.5 hPa 0 mm - - -
1788491377 30° C 61% 1014.6 hPa 0 mm - - -
1788490477 30.56° C 60% 1014.4 hPa 0 mm - - -
1788489577 30.56° C 59% 1014.5 hPa 0 mm - - -
1788488678 30.56° C 59% 1014.4 hPa 0 mm - - -
1788487776 30.56° C 58% 1014.1 hPa 0 mm - - -
1788485978 31.11° C 57% 1013.8 hPa 0 mm - - -
1788484177 31.67° C 55% 1013.6 hPa 0 mm - - -
1788483277 32.22° C 54% 1013.2 hPa 0 mm - - -
1788482376 32.78° C 53% 1013.5 hPa 0 mm - - -

* Rain latest hour (hover to see other rain measurements)
** Current wind speed in m/s (hover to see current wind gust speed)